Location: Fredericksburg
(30.2750°N, 98.8720°W)
Time: 19:24:10
(UTC-05:00)

Amateur Radio Satellites - All Passes

Search period start: 01 August 2014 18:54
Search period end: 02 August 2014 18:54
Location: Fredericksburg, 30.2750°N, 98.8720°W

Satellite Date Start Highest point End Downlink Frequencies (MHz)
Time Altitude Azimuth
AO-7 01 Aug 19:19:12 19:21:55 12° 267° (W) 19:24:39 29.400 - 29.500 MHz
Hamsat 01 Aug 19:37:48 19:41:22 27° 263° (W) 19:44:58 145.90 MHz
STRAND 1 01 Aug 20:17:01 20:22:07 78° 103° (ESE) 20:27:11 ?
JAS-2 01 Aug 20:25:34 20:31:48 26° 264° (W) 20:37:48 435.800 - 435.900 CW/SSB, 435.910 FM
SO-67 01 Aug 20:27:30 20:30:48 43° 261° (W) 20:34:08 435.3500 MHz FM
MaSat-1 01 Aug 20:41:30 20:45:16 57° 108° (ESE) 20:49:42 437.345 MHz
HO-68 01 Aug 21:18:46 21:25:27 44° 69° (ENE) 21:32:08 435.675 MHz FM
RS-15 01 Aug 21:25:56 21:34:34 25° 45° (NE) 21:43:21 29.354 - 29.394 USB, Beacon 29.352 USB
SO-50 01 Aug 21:44:43 21:49:30 74° 62° (ENE) 21:54:20 436.795 FM
ISS 01 Aug 21:46:18 21:49:30 47° 131° (SE) 21:52:42 145.800 FM
UKube-1 01 Aug 22:10:15 22:14:36 76° 76° (ENE) 22:18:58 145.840 MHz, 145.915 MHz
MaSat-1 01 Aug 22:22:14 22:23:07 11° 307° (NW) 22:24:02 437.345 MHz
Oscar 11 01 Aug 22:50:56 22:55:13 73° 259° (WSW) 22:59:31 145.825 FM, Beacon 2401.500 USB
HO-68 01 Aug 23:07:16 23:13:10 28° 262° (W) 23:19:07 435.675 MHz FM
UOSAT-12 01 Aug 23:22:34 23:27:08 49° 60° (ENE) 23:31:38 437.025 FM, 437.400 FM
Sapphire 01 Aug 23:22:43 23:26:34 20° 105° (ESE) 23:30:25 437.095 MHz 1200 baud AX-25 AFSK
FUNcube-1 01 Aug 23:24:10 23:28:29 88° 258° (WSW) 23:32:44 145.950 - 145.970 MHz USB
ISS 01 Aug 23:24:37 23:26:23 14° 325° (NW) 23:28:10 145.800 FM
RS-15 01 Aug 23:36:57 23:48:06 82° 246° (WSW) 23:59:45 29.354 - 29.394 USB, Beacon 29.352 USB
Oscar 10/S400 01 Aug 23:41:24 00:04:36 82° 173° (S) 09:46:35 145.825 - 145.975 CW/USB, Beacon 145.810 USB
PCSat 01 Aug 23:54:10 23:59:18 46° 110° (ESE) 00:04:27 145.825 MHz
Sapphire 02 Aug 01:04:36 01:09:38 40° 299° (WNW) 01:14:42 437.095 MHz 1200 baud AX-25 AFSK
UOSAT-12 02 Aug 01:04:45 01:06:47 13° 253° (WSW) 01:08:49 437.025 FM, 437.400 FM
PANSAT 02 Aug 01:27:26 01:28:40 11° 154° (SSE) 01:29:54 not established
PCSat 02 Aug 01:39:08 01:42:54 19° 305° (NW) 01:46:41 145.825 MHz
RS-15 02 Aug 01:53:53 01:58:54 14° 260° (W) 02:04:02 29.354 - 29.394 USB, Beacon 29.352 USB
Oscar 16 02 Aug 01:58:35 02:01:25 15° 94° (E) 02:04:14 437.025 USB, Beacon 2401.1428
ITAMSAT 1 02 Aug 02:29:39 02:31:19 11° 93° (E) 02:32:59 435.822 SSB
Uribyol 2 02 Aug 02:46:05 02:49:49 20° 96° (E) 02:53:32 436.500 FM
AO-27 02 Aug 02:48:10 02:51:55 20° 96° (E) 02:55:40 436.795 MHz FM
AO-Echo 02 Aug 02:49:46 02:53:25 21° 95° (E) 02:56:58 ?
PANSAT 02 Aug 03:04:51 03:08:24 35° 164° (SSE) 03:11:57 not established
Oscar 19 02 Aug 03:06:36 03:11:47 80° 103° (ESE) 03:16:58 437.125 CW, 437.150 USB
Gurwin Techsat 1B 02 Aug 03:34:59 03:39:13 24° 96° (E) 03:43:26 435.225 FM
Oscar 16 02 Aug 03:35:58 03:40:55 48° 287° (WNW) 03:45:53 437.025 USB, Beacon 2401.1428
JAS-1B 02 Aug 03:47:58 03:56:30 55° 99° (E) 04:03:35 435.800 - 435.900 CW/SSB
ITAMSAT 1 02 Aug 04:06:01 04:11:05 60° 286° (WNW) 04:16:09 435.822 SSB
Uribyol 2 02 Aug 04:24:38 04:29:18 35° 288° (WNW) 04:33:57 436.500 FM
AO-27 02 Aug 04:26:46 04:31:27 35° 288° (WNW) 04:36:06 436.795 MHz FM
AO-Echo 02 Aug 04:27:52 04:32:10 30° 289° (WNW) 04:36:21 ?
PANSAT 02 Aug 04:44:33 04:48:24 65° 176° (S) 04:52:14 not established
TMSAT-1 02 Aug 04:46:36 04:51:54 85° 283° (WNW) 04:57:11 436.925 FM
Uosat F 02 Aug 04:50:48 04:54:11 18° 96° (E) 04:57:33 435.120 FM
OPAL 02 Aug 04:56:38 05:01:34 86° 75° (ENE) 05:06:32 ?
Gurwin Techsat 1B 02 Aug 05:14:30 05:19:07 31° 289° (WNW) 05:23:44 435.225 FM
KITSAT 1 02 Aug 05:24:51 05:32:33 50° 109° (ESE) 05:40:15 435.175 FM
AO-7 02 Aug 05:28:28 05:36:26 49° 102° (ESE) 05:44:19 29.400 - 29.500 MHz
JAS-1B 02 Aug 05:39:19 05:46:16 27° 298° (WNW) 05:52:24 435.800 - 435.900 CW/SSB
ISS 02 Aug 05:56:00 05:59:14 45° 43° (NE) 06:02:27 145.800 FM
Saudisat 1A 02 Aug 06:12:14 06:15:51 25° 111° (ESE) 06:19:29 436.775 MHz
PANSAT 02 Aug 06:24:41 06:28:29 55° 189° (S) 06:32:16 not established
Uosat F 02 Aug 06:28:26 06:33:01 37° 288° (WNW) 06:37:34 435.120 FM
MaSat-1 02 Aug 06:42:15 06:47:15 47° 65° (ENE) 06:51:48 437.345 MHz
KITSAT 1 02 Aug 07:21:09 07:28:05 31° 306° (NW) 07:35:05 435.175 FM
AO-7 02 Aug 07:21:51 07:28:49 31° 297° (WNW) 07:35:45 29.400 - 29.500 MHz
STRAND 1 02 Aug 07:27:08 07:32:12 61° 75° (ENE) 07:37:15 ?
Hamsat 02 Aug 07:28:25 07:32:45 78° 101° (ESE) 07:37:06 145.90 MHz
ISS 02 Aug 07:34:41 07:35:36 11° 235° (SW) 07:36:31 145.800 FM
JAS-2 02 Aug 07:41:17 07:46:47 68° 101° (ESE) 07:51:56 435.800 - 435.900 CW/SSB, 435.910 FM
Saudisat 1A 02 Aug 07:51:46 07:55:19 24° 304° (NW) 07:58:54 436.775 MHz
SO-67 02 Aug 07:57:44 08:00:09 18° 96° (E) 08:02:33 435.3500 MHz FM
PANSAT 02 Aug 08:05:15 08:08:23 24° 201° (SSW) 08:11:31 not established
MaSat-1 02 Aug 08:21:15 08:23:57 15° 261° (W) 08:26:32 437.345 MHz
PCSat 02 Aug 08:50:08 08:52:16 12° 52° (NE) 08:54:24 145.825 MHz
STRAND 1 02 Aug 09:10:15 09:11:40 11° 267° (W) 09:13:04 ?
JAS-2 02 Aug 09:29:51 09:31:04 11° 298° (WNW) 09:32:17 435.800 - 435.900 CW/SSB, 435.910 FM
SO-67 02 Aug 09:30:46 09:33:03 17° 288° (WNW) 09:35:20 435.3500 MHz FM
Sapphire 02 Aug 09:58:02 10:03:16 47° 62° (ENE) 10:08:27 437.095 MHz 1200 baud AX-25 AFSK
UKube-1 02 Aug 10:05:15 10:08:28 20° 97° (E) 10:11:39 145.840 MHz, 145.915 MHz
PCSat 02 Aug 10:30:49 10:36:14 77° 247° (WSW) 10:41:36 145.825 MHz
HO-68 02 Aug 10:39:42 10:46:52 79° 104° (ESE) 10:54:00 435.675 MHz FM
Oscar 11 02 Aug 10:44:39 10:48:30 31° 98° (E) 10:52:21 145.825 FM, Beacon 2401.500 USB
FUNcube-1 02 Aug 11:19:25 11:23:00 26° 98° (E) 11:26:37 145.950 - 145.970 MHz USB
UKube-1 02 Aug 11:41:01 11:44:34 25° 289° (WNW) 11:48:06 145.840 MHz, 145.915 MHz
Sapphire 02 Aug 11:42:52 11:46:13 17° 255° (WSW) 11:49:33 437.095 MHz 1200 baud AX-25 AFSK
RS-15 02 Aug 11:44:07 11:52:23 24° 104° (ESE) 12:00:25 29.354 - 29.394 USB, Beacon 29.352 USB
SO-50 02 Aug 11:54:15 11:58:41 86° 296° (WNW) 12:03:12 436.795 FM
Oscar 11 02 Aug 12:21:38 12:24:24 17° 290° (WNW) 12:27:10 145.825 FM, Beacon 2401.500 USB
HO-68 02 Aug 12:29:49 12:33:43 16° 299° (WNW) 12:37:37 435.675 MHz FM
FUNcube-1 02 Aug 12:56:17 12:59:11 18° 289° (WNW) 13:02:07 145.950 - 145.970 MHz USB
Oscar 16 02 Aug 13:11:16 13:13:18 12° 66° (ENE) 13:15:20 437.025 USB, Beacon 2401.1428
UOSAT-12 02 Aug 13:28:04 13:32:30 57° 114° (ESE) 13:37:04 437.025 FM, 437.400 FM
ITAMSAT 1 02 Aug 13:43:21 13:44:27 11° 64° (ENE) 13:45:33 435.822 SSB
RS-15 02 Aug 13:52:30 14:03:41 71° 299° (WNW) 14:14:37 29.354 - 29.394 USB, Beacon 29.352 USB
AO-Echo 02 Aug 13:57:20 14:00:42 17° 68° (ENE) 14:04:05 ?
Uribyol 2 02 Aug 13:59:01 14:02:25 18° 68° (ENE) 14:05:48 436.500 FM
AO-27 02 Aug 14:01:18 14:04:46 18° 68° (ENE) 14:08:14 436.795 MHz FM
Oscar 19 02 Aug 14:17:46 14:22:47 63° 75° (ENE) 14:27:51 437.125 CW, 437.150 USB
JAS-1B 02 Aug 14:23:46 14:31:28 33° 64° (ENE) 14:39:44 435.800 - 435.900 CW/SSB
Oscar 16 02 Aug 14:47:03 14:52:04 60° 259° (W) 14:57:08 437.025 USB, Beacon 2401.1428
Gurwin Techsat 1B 02 Aug 14:50:51 14:54:52 22° 69° (ENE) 14:58:53 435.225 FM
UOSAT-12 02 Aug 15:10:50 15:13:00 13° 310° (NW) 15:15:12 437.025 FM, 437.400 FM
ITAMSAT 1 02 Aug 15:18:05 15:23:17 72° 258° (WSW) 15:28:29 435.822 SSB
KITSAT 1 02 Aug 15:19:25 15:27:13 51° 60° (ENE) 15:34:58 435.175 FM
AO-Echo 02 Aug 15:33:57 15:39:02 46° 260° (W) 15:44:08 ?
Uribyol 2 02 Aug 15:36:37 15:41:30 42° 260° (W) 15:46:24 436.500 FM
AO-27 02 Aug 15:38:59 15:43:54 42° 260° (W) 15:48:50 436.795 MHz FM
Uosat F 02 Aug 15:59:31 16:02:12 15° 66° (ENE) 16:04:52 435.120 FM
TMSAT-1 02 Aug 16:01:29 16:06:47 85° 76° (ENE) 16:12:06 436.925 FM
Oscar 19 02 Aug 16:01:30 16:02:26 10° 267° (W) 16:03:23 437.125 CW, 437.150 USB
RS-15 02 Aug 16:11:49 16:18:17 17° 323° (NW) 16:24:44 29.354 - 29.394 USB, Beacon 29.352 USB
JAS-1B 02 Aug 16:12:42 16:21:15 56° 261° (W) 16:30:51 435.800 - 435.900 CW/SSB
AO-7 02 Aug 16:21:14 16:28:49 40° 66° (ENE) 16:36:24 29.400 - 29.500 MHz
Saudisat 1A 02 Aug 16:22:57 16:27:15 52° 60° (ENE) 16:31:31 436.775 MHz
Gurwin Techsat 1B 02 Aug 16:29:46 16:34:34 35° 262° (W) 16:39:23 435.225 FM
OPAL 02 Aug 17:12:19 17:17:05 38° 101° (E) 17:21:51 ?
KITSAT 1 02 Aug 17:15:36 17:22:09 28° 255° (WSW) 17:28:41 435.175 FM
Uosat F 02 Aug 17:35:38 17:40:30 50° 259° (W) 17:45:24 435.120 FM
JAS-2 02 Aug 17:47:06 17:52:21 21° 66° (ENE) 17:57:21 435.800 - 435.900 CW/SSB, 435.910 FM
Saudisat 1A 02 Aug 18:05:29 18:06:19 11° 253° (WSW) 18:07:10 436.775 MHz
AO-7 02 Aug 18:13:55 18:21:27 37° 260° (W) 18:29:02 29.400 - 29.500 MHz
Hamsat 02 Aug 18:16:46 18:20:13 25° 72° (ENE) 18:23:40 145.90 MHz
